User: anonymous   Login
Location: Caltech
(34.1382°N, 118.1253°W)
Time: 13:08:26
(UTC-07:00)
Language:

Cosmos 1697 Rocket - Orbit

View from above orbital plane
View from above orbital plane
View from above satellite
View from above satellite

Ground track
Ground track

The orbit data is extracted from the following two-line orbital elements,

1 16182U 85097B   15148.44600925 -.00000248  00000-0 -10136-3 0  9996
2 16182 071.0011 147.5316 0006335 153.7395 314.2286 14.16170180529930
Epoch (UTC): 28 May 2015 10:42:15
Eccentricity: 0.0006335
inclination: 71.0011°
perigee height: 834 km
apogee height: 843 km
right ascension of ascending node: 147.5316°
argument of perigee: 153.7395°
revolutions per day: 14.16170180
mean anomaly at epoch: 314.2286°
orbit number at epoch: 52993

The dashed part of the orbit path shows where the satellite is in the earth's shadow,  

DLR